| time (UTC) | temp F | wind direction | speed MPH | gust MPH | rain 1hr in | rain 24hr in | rain mn in | humidity % | barometer mb |
| 20260502213845 | 61 | 0.0 | 0.0 | 0.00 | 0.00 | 0.00 | 63 | 1021.5 | |
| 20260502212846 | 62 | 0.0 | 0.0 | 0.00 | 0.00 | 0.00 | 63 | 1021.5 | |
| 20260502211844 | 62 | 0.0 | 0.0 | 0.00 | 0.00 | 0.00 | 62 | 1021.2 | |
| 20260502210845 | 62 | 0.0 | 0.0 | 0.00 | 0.00 | 0.00 | 62 | 1021.4 | |
| 20260502205844 | 64 | 0.0 | 0.0 | 0.00 | 0.00 | 0.00 | 61 | 1021.2 | |
| 20260502204844 | 64 | 0.0 | 0.0 | 0.00 | 0.00 | 0.00 | 61 | 1021.4 | |
| 20260502203844 | 64 | 0.0 | 0.0 | 0.00 | 0.00 | 0.00 | 60 | 1021.2 | |
| 20260502202845 | 64 | 0.0 | 0.0 | 0.00 | 0.00 | 0.00 | 60 | 1021.4 | |
| 20260502201845 | 64 | 0.0 | 0.0 | 0.00 | 0.00 | 0.00 | 60 | 1021.1 | |
| 20260502200845 | 65 | 0.0 | 0.0 | 0.00 | 0.00 | 0.00 | 58 | 1020.9 | |
| 20260502195844 | 66 | 0.0 | 0.0 | 0.00 | 0.00 | 0.00 | 58 | 1021.1 | |
| 20260502194845 | 66 | 0.0 | 0.0 | 0.00 | 0.00 | 0.00 | 58 | 1021.0 | |
| 20260502193844 | 67 | 0.0 | 0.0 | 0.00 | 0.00 | 0.00 | 57 | 1021.2 | |
| 20260502192844 | 67 | 0.0 | 0.0 | 0.00 | 0.00 | 0.00 | 57 | 1020.9 | |
| 20260502191845 | 67 | 0.0 | 0.0 | 0.00 | 0.00 | 0.00 | 56 | 1020.7 | |
| 20260502190845 | 68 | 0.0 | 0.0 | 0.00 | 0.00 | 0.00 | 56 | 1020.6 | |
| 20260502185845 | 68 | 0.0 | 0.0 | 0.00 | 0.00 | 0.00 | 55 | 1020.5 | |
| 20260502184844 | 69 | 0.0 | 0.0 | 0.00 | 0.00 | 0.00 | 54 | 1020.3 | |
| 20260502183845 | 70 | 0.0 | 0.0 | 0.00 | 0.00 | 0.00 | 53 | 1020.3 | |
| 20260502182845 | 71 | 0.0 | 0.0 | 0.00 | 0.00 | 0.00 | 53 | 1020.2 | |
| 20260502181844 | 71 | 0.0 | 0.0 | 0.00 | 0.00 | 0.00 | 52 | 1020.1 | |
| 20260502180845 | 72 | 0.0 | 0.0 | 0.00 | 0.00 | 0.00 | 51 | 1019.9 | |
| 20260502163845 | 75 | 0.0 | 0.0 | 0.00 | 0.00 | 0.00 | 48 | 1020.1 | |
| 20260502162846 | 75 | 0.0 | 0.0 | 0.00 | 0.00 | 0.00 | 48 | 1020.2 | |
| 20260502161844 | 75 | 0.0 | 0.0 | 0.00 | 0.00 | 0.00 | 48 | 1020.3 | |
| 20260502160844 | 75 | 0.0 | 0.0 | 0.00 | 0.00 | 0.00 | 48 | 1020.4 | |
| 20260502151844 | 76 | 0.0 | 0.0 | 0.00 | 0.00 | 0.00 | 48 | 1020.9 | |
| 20260502150844 | 76 | 0.0 | 0.0 | 0.00 | 0.00 | 0.00 | 47 | 1020.9 | |
| 20260502122844 | 77 | 0.0 | 0.0 | 0.00 | 0.00 | 0.00 | 47 | 1023.0 | |
| 20260502121844 | 76 | 0.0 | 0.0 | 0.00 | 0.00 | 0.00 | 46 | 1022.9 | |
| 20260502120845 | 76 | 0.0 | 0.0 | 0.00 | 0.00 | 0.00 | 47 | 1022.9 | |
| 20260502115844 | 77 | 0.0 | 0.0 | 0.00 | 0.00 | 0.00 | 48 | 1023.3 | |
| 20260502114844 | 76 | 0.0 | 0.0 | 0.00 | 0.00 | 0.00 | 46 | 1023.4 | |
| 20260502113845 | 77 | 0.0 | 0.0 | 0.00 | 0.00 | 0.00 | 47 | 1023.5 | |
| 20260502112844 | 76 | 0.0 | 0.0 | 0.00 | 0.00 | 0.00 | 46 | 1023.6 | |
| 20260502111845 | 76 | 0.0 | 0.0 | 0.00 | 0.00 | 0.00 | 47 | 1023.9 | |
| 20260502110845 | 77 | 0.0 | 0.0 | 0.00 | 0.00 | 0.00 | 47 | 1023.8 | |
| 20260502105844 | 76 | 0.0 | 0.0 | 0.00 | 0.00 | 0.00 | 47 | 1024.1 | |
| 20260502104844 | 77 | 0.0 | 0.0 | 0.00 | 0.00 | 0.00 | 47 | 1024.1 | |
| 20260502103844 | 77 | 0.0 | 0.0 | 0.00 | 0.00 | 0.00 | 47 | 1024.3 | |
| 20260502102845 | 77 | 0.0 | 0.0 | 0.00 | 0.00 | 0.00 | 46 | 1024.4 | |
| 20260502101845 | 76 | 0.0 | 0.0 | 0.00 | 0.00 | 0.00 | 46 | 1024.6 | |
| 20260502100844 | 77 | 0.0 | 0.0 | 0.00 | 0.00 | 0.00 | 46 | 1025.0 | |
| 20260502090844 | 77 | 0.0 | 0.0 | 0.00 | 0.00 | 0.00 | 48 | 1025.3 | |
| 20260502070845 | 74 | 0.0 | 0.0 | 0.00 | 0.00 | 0.00 | 49 | 1026.6 | |
| 20260502065844 | 71 | 0.0 | 0.0 | 0.00 | 0.00 | 0.00 | 48 | 1026.6 | |
| 20260502064845 | 72 | 0.0 | 0.0 | 0.00 | 0.00 | 0.00 | 48 | 1026.8 | |
| 20260502063844 | 72 | 0.0 | 0.0 | 0.00 | 0.00 | 0.00 | 48 | 1026.9 | |
| 20260502062845 | 72 | 0.0 | 0.0 | 0.00 | 0.00 | 0.00 | 48 | 1026.8 | |
| 20260502061843 | 70 | 0.0 | 0.0 | 0.00 | 0.00 | 0.00 | 49 | 1026.9 | |
| 20260502060844 | 69 | 0.0 | 0.0 | 0.00 | 0.00 | 0.00 | 49 | 1027.0 | |
| 20260502055844 | 75 | 0.0 | 0.0 | 0.00 | 0.00 | 0.00 | 47 | 1027.0 | |
| 20260502054845 | 79 | 0.0 | 0.0 | 0.00 | 0.00 | 0.00 | 46 | 1027.5 | |
| 20260502053845 | 77 | 0.0 | 0.0 | 0.00 | 0.00 | 0.00 | 47 | 1027.5 | |
| 20260502052845 | 74 | 0.0 | 0.0 | 0.00 | 0.00 | 0.00 | 49 | 1027.9 | |
| 20260502051845 | 66 | 0.0 | 0.0 | 0.00 | 0.00 | 0.00 | 52 | 1028.0 | |
| 20260502050845 | 62 | 0.0 | 0.0 | 0.00 | 0.00 | 0.00 | 56 | 1028.8 | |
| 20260502045844 | 60 | 0.0 | 0.0 | 0.00 | 0.00 | 0.00 | 58 | 1028.8 | |
| 20260502044845 | 58 | 0.0 | 0.0 | 0.00 | 0.00 | 0.00 | 60 | 1028.8 | |
| 20260502043844 | 56 | 0.0 | 0.0 | 0.00 | 0.00 | 0.00 | 62 | 1028.6 | |
| 20260502042844 | 56 | 0.0 | 0.0 | 0.00 | 0.00 | 0.00 | 63 | 1028.3 | |
| 20260502041845 | 54 | 0.0 | 0.0 | 0.00 | 0.00 | 0.00 | 63 | 1028.3 | |
| 20260502040846 | 55 | 0.0 | 0.0 | 0.00 | 0.00 | 0.00 | 61 | 1028.3 | |
| 20260502035845 | 55 | 0.0 | 0.0 | 0.00 | 0.00 | 0.00 | 61 | 1028.3 | |
| 20260502034844 | 55 | 0.0 | 0.0 | 0.00 | 0.00 | 0.00 | 61 | 1028.4 | |
| 20260502033844 | 55 | 0.0 | 0.0 | 0.00 | 0.00 | 0.00 | 61 | 1028.3 | |
| 20260502032846 | 54 | 0.0 | 0.0 | 0.00 | 0.00 | 0.00 | 61 | 1028.1 | |
| 20260502031845 | 54 | 0.0 | 0.0 | 0.00 | 0.00 | 0.00 | 62 | 1028.0 | |
| 20260502030845 | 53 | 0.0 | 0.0 | 0.00 | 0.00 | 0.00 | 64 | 1028.0 | |
| 20260502025845 | 54 | 0.0 | 0.0 | 0.00 | 0.00 | 0.00 | 64 | 1027.9 | |
| 20260502024845 | 53 | 0.0 | 0.0 | 0.00 | 0.00 | 0.00 | 63 | 1027.9 | |
| 20260502023844 | 54 | 0.0 | 0.0 | 0.00 | 0.00 | 0.00 | 63 | 1028.2 | |
| 20260502022844 | 54 | 0.0 | 0.0 | 0.00 | 0.00 | 0.00 | 63 | 1028.1 | |
| 20260502021845 | 54 | 0.0 | 0.0 | 0.00 | 0.00 | 0.00 | 63 | 1028.1 | |
| 20260502020845 | 55 | 0.0 | 0.0 | 0.00 | 0.00 | 0.00 | 62 | 1028.0 | |
| 20260502015845 | 55 | 0.0 | 0.0 | 0.00 | 0.00 | 0.00 | 62 | 1027.9 | |
| 20260502014844 | 54 | 0.0 | 0.0 | 0.00 | 0.00 | 0.00 | 62 | 1028.2 | |
| 20260502013845 | 54 | 0.0 | 0.0 | 0.00 | 0.00 | 0.00 | 62 | 1028.1 | |
| 20260502012844 | 54 | 0.0 | 0.0 | 0.00 | 0.00 | 0.00 | 63 | 1028.2 | |
| 20260502011844 | 54 | 0.0 | 0.0 | 0.00 | 0.00 | 0.00 | 63 | 1028.1 | |
| 20260502010845 | 54 | 0.0 | 0.0 | 0.00 | 0.00 | 0.00 | 63 | 1028.1 | |
| 20260502005845 | 55 | 0.0 | 0.0 | 0.00 | 0.00 | 0.00 | 62 | 1028.2 | |
| 20260502004844 | 55 | 0.0 | 0.0 | 0.00 | 0.00 | 0.00 | 61 | 1028.1 | |
| 20260502003845 | 55 | 0.0 | 0.0 | 0.00 | 0.00 | 0.00 | 61 | 1028.4 | |
| 20260502002844 | 55 | 0.0 | 0.0 | 0.00 | 0.00 | 0.00 | 60 | 1028.2 | |
| 20260502001845 | 56 | 0.0 | 0.0 | 0.00 | 0.00 | 0.00 | 60 | 1028.1 | |
| 20260502000843 | 55 | 0.0 | 0.0 | 0.00 | 0.00 | 0.00 | 60 | 1028.1 | |
| 20260501235845 | 55 | 0.0 | 0.0 | 0.00 | 0.00 | 0.00 | 60 | 1028.3 | |
| 20260501234844 | 55 | 0.0 | 0.0 | 0.00 | 0.00 | 0.00 | 60 | 1028.3 | |
| 20260501233845 | 56 | 0.0 | 0.0 | 0.00 | 0.00 | 0.00 | 58 | 1028.3 | |
| 20260501232844 | 56 | 0.0 | 0.0 | 0.00 | 0.00 | 0.00 | 58 | 1028.3 | |
| 20260501231845 | 57 | 0.0 | 0.0 | 0.00 | 0.00 | 0.00 | 58 | 1028.2 | |
| 20260501230845 | 56 | 0.0 | 0.0 | 0.00 | 0.00 | 0.00 | 58 | 1028.4 | |
| 20260501225844 | 57 | 0.0 | 0.0 | 0.00 | 0.00 | 0.00 | 59 | 1028.4 | |
| 20260501224844 | 56 | 0.0 | 0.0 | 0.00 | 0.00 | 0.00 | 60 | 1028.1 | |
| 20260501223844 | 57 | 0.0 | 0.0 | 0.00 | 0.00 | 0.00 | 60 | 1027.9 | |
| 20260501222845 | 58 | 0.0 | 0.0 | 0.00 | 0.00 | 0.00 | 59 | 1028.3 | |
| 20260501221844 | 57 | 0.0 | 0.0 | 0.00 | 0.00 | 0.00 | 59 | 1028.1 | |
| 20260501220845 | 57 | 0.0 | 0.0 | 0.00 | 0.00 | 0.00 | 59 | 1028.0 | |
| 20260501215844 | 57 | 0.0 | 0.0 | 0.00 | 0.00 | 0.00 | 59 | 1027.8 | |
| 20260501214845 | 58 | 0.0 | 0.0 | 0.00 | 0.00 | 0.00 | 58 | 1027.7 |